Volver al catálogo

COSMOS 846

ActivoMilitarPO
NORAD 9061·PAYLOAD·🇷🇺 Russia

Lanzado Jul 29, 1976 desde Plesetsk Cosmodrome

Loading…

Próximos Pases (próximas 24 horas)

TLE

ActualizadoSource: Space-Track

Época: Sep 14, 2026, 05:29 UTC

1 09061U 76078A   26257.22893215  .00000052  00000-0  38042-4 0  9996
2 09061  82.9363 354.4185 0039914 288.7275  97.9173 13.76658205787487

Sigue COSMOS 846 en tiempo real con AllMySat

Download on the App Store